WetterOnline ( https://www.wetteronline.de )

Wetter aktuell Fürstenzell

Aktuelles Wetter: Fürstenzell (480m)

6-stündlich | Neueste Meldungen
Ortszeit Temperatur Wetter
So, 25.09. 2:00 10.8° C Nebel
Sa, 24.09. 20:00 11.9° C Regen
Sa, 24.09. 14:00 13.5° C leichter Regen
Sa, 24.09. 8:00 5.7° C bedeckt
Sa, 24.09. 2:00 6.2° C bedeckt
Fr, 23.09. 20:00 12.9° C bedeckt
Fr, 23.09. 14:00 15.4° C leicht bewölkt
Fr, 23.09. 8:00 5.0° C leicht bewölkt
Ortszeit Temperatur Wetter
So, 25.09. 4:00 10.4° C Nebel
So, 25.09. 3:50 10.4° C Nebel
So, 25.09. 3:40 10.6° C Dunst
So, 25.09. 3:30 10.8° C bedeckt
So, 25.09. 3:20 10.8° C Dunst
So, 25.09. 3:10 10.8° C Dunst
So, 25.09. 3:00 10.8° C bewölkt
So, 25.09. 2:30 10.8° C Nebel
So, 25.09. 2:00 10.8° C Nebel
So, 25.09. 1:30 10.8° C Nebel
So, 25.09. 1:00 10.7° C Nebel
Ortszeit Relative Feuchte Sichtweite
So, 25.09. 2:00 99% 100 m
Sa, 24.09. 20:00 94% 13 km
Sa, 24.09. 14:00 75% 22 km
Sa, 24.09. 8:00 93% 24 km
Sa, 24.09. 2:00 89% 27 km
Fr, 23.09. 20:00 51% 30 km
Fr, 23.09. 14:00 51% 60 km
Fr, 23.09. 8:00 95% 10 km
Ortszeit Relative Feuchte Sichtweite
So, 25.09. 4:00 99% 100 m
So, 25.09. 3:50 99% -
So, 25.09. 3:40 98% -
So, 25.09. 3:30 98% 3.6 km
So, 25.09. 3:20 98% -
So, 25.09. 3:10 98% -
So, 25.09. 3:00 99% 2.1 km
So, 25.09. 2:30 99% 3.2 km
So, 25.09. 2:00 99% 100 m
So, 25.09. 1:30 100% 0.2 km
So, 25.09. 1:00 100% 0.2 km
Ortszeit Niederschlagsmenge Niederschlagsart
So, 25.09. 2:00 0.3 l/m2 in 6 Std. Regen
Sa, 24.09. 20:00 0.4 l/m2 in 12 Std. Regen
Sa, 24.09. 14:00 0.1 l/m2 in 6 Std. Regen
Sa, 24.09. 8:00 0.0 l/m2 in 12 Std. -
Sa, 24.09. 2:00 0.0 l/m2 in 6 Std. -
Fr, 23.09. 20:00 0.0 l/m2 in 12 Std. -
Fr, 23.09. 14:00 0.0 l/m2 in 6 Std. -
Fr, 23.09. 8:00 0.0 l/m2 in 12 Std. -
Ortszeit Niederschlagsmenge Niederschlagsart
So, 25.09. 4:00 0.1 l/m2 in 1 Std. Regen
So, 25.09. 3:50 keine Meldung -
So, 25.09. 3:40 keine Meldung -
So, 25.09. 3:30 0.1 l/m2 in 1 Std. Schneeregen
So, 25.09. 3:20 keine Meldung -
So, 25.09. 3:10 keine Meldung -
So, 25.09. 3:00 0.1 l/m2 in 1 Std. Regen
So, 25.09. 2:30 0.1 l/m2 in 1 Std. -
So, 25.09. 2:00 0.0 l/m2 in 1 Std. Regen
So, 25.09. 1:30 0.0 l/m2 in 1 Std. -
So, 25.09. 1:00 0.1 l/m2 in 1 Std. Regen
Ortszeit Stärke Spitze Richtung
km/h Bft. km/h Grad Sektor
So, 25.09. 2:00 4 1 7 80° O
Sa, 24.09. 20:00 4 1 11 30° NO
Sa, 24.09. 14:00 4 1 14 190° S
Sa, 24.09. 8:00 7 2 11 50° NO
Sa, 24.09. 2:00 7 2 14 50° NO
Fr, 23.09. 20:00 4 1 22 120° SO
Fr, 23.09. 14:00 7 2 25 160° S
Fr, 23.09. 8:00 4 1 14 200° S
Ortszeit Stärke Spitze Richtung
km/h Bft. km/h Grad Sektor
So, 25.09. 4:00 4 1 7 90° O
So, 25.09. 3:50 4 1 - 90° O
So, 25.09. 3:40 6 1 - 110° O
So, 25.09. 3:30 6 1 7 120° SO
So, 25.09. 3:20 6 1 - 120° SO
So, 25.09. 3:10 4 1 - 140° SO
So, 25.09. 3:00 6 1 7 120° SO
So, 25.09. 2:30 4 1 7 130° SO
So, 25.09. 2:00 4 1 7 80° O
So, 25.09. 1:30 4 1 7 70° O
So, 25.09. 1:00 4 1 7 90° O
Ortszeit Untergrenze Bedeckung Gattung
total tief tief mittel hoch
So, 25.09. 2:00 <30 m 8/8 0/8 - - -
Sa, 24.09. 20:00 1800 m 8/8 8/8 - - -
Sa, 24.09. 14:00 2100 m 8/8 8/8 - - -
Sa, 24.09. 8:00 4500 m 8/8 8/8 - - -
Sa, 24.09. 2:00 4500 m 8/8 8/8 - - -
Fr, 23.09. 20:00 6000 m 8/8 8/8 - - -
Fr, 23.09. 14:00 10500 m 7/8 0/8 - - -
Fr, 23.09. 8:00 9000 m 4/8 0/8 - - -
Ortszeit Bedeckungsgrad in Achtel und Wolkenuntergrenze
So, 25.09. 4:00 1(<30m) 7(1500m) 8(2400m)
So, 25.09. 3:50 1(<30m) 7(1500m) 8(2400m)
So, 25.09. 3:40 8
So, 25.09. 3:30 2(1500m) 7(2100m) 8(2400m)
So, 25.09. 3:20 2(1500m) 7(2100m) 8(2400m)
So, 25.09. 3:10 8
So, 25.09. 3:00 7(1800m) 7(2100m)
So, 25.09. 2:30 4(<30m) 8(1500m) 8(2100m)
So, 25.09. 2:00 7(<30m) 8(1500m) 8(2100m)
So, 25.09. 1:30 7(<30m) 8(1500m) 8(2100m)
So, 25.09. 1:00 8(60m) 8(1500m) 8(3000m)
Ortszeit Luftdruck NN (hPa) Tendenz (hPa in 3 Std.)
So, 25.09. 2:00 1014 - 0,3
Sa, 24.09. 20:00 1014 - 0,1
Sa, 24.09. 14:00 1014 - 0,2
Sa, 24.09. 8:00 1015 - 0,8
Sa, 24.09. 2:00 1017 - 0,5
Fr, 23.09. 20:00 1016 - 0,7
Fr, 23.09. 14:00 1018 - 1,4
Fr, 23.09. 8:00 1022 - 0,1
Ortszeit Luftdruck NN (hPa) Tendenz (hPa in 3 Std.)
So, 25.09. 4:00 1013 - 0,8
So, 25.09. 3:50 1013 keine Meldung
So, 25.09. 3:40 1013 keine Meldung
So, 25.09. 3:30 1013 - 0,6
So, 25.09. 3:20 1013 keine Meldung
So, 25.09. 3:10 1014 keine Meldung
So, 25.09. 3:00 1014 - 0,5
So, 25.09. 2:30 1014 - 0,3
So, 25.09. 2:00 1014 - 0,3
So, 25.09. 1:30 1014 - 0,3
So, 25.09. 1:00 1014 - 0,2
Ortszeit Schneehöhe (cm)
So, 25.09. 2:00 0
Sa, 24.09. 20:00 0
Sa, 24.09. 14:00 0
Sa, 24.09. 8:00 0
Sa, 24.09. 2:00 0
Fr, 23.09. 20:00 0
Fr, 23.09. 14:00 0
Fr, 23.09. 8:00 0
Ortszeit Schneehöhe (cm)
So, 25.09. 4:00 0
So, 25.09. 3:50 0
So, 25.09. 3:40 0
So, 25.09. 3:30 0
So, 25.09. 3:20 0
So, 25.09. 3:10 0
So, 25.09. 3:00 0
So, 25.09. 2:30 0
So, 25.09. 2:00 0
So, 25.09. 1:30 0
So, 25.09. 1:00 0
Link zu dieser Seite / Seite empfehlen

Das Wetter in ...